• în Republica Moldova
  • Lista ţărilor
  • Pe 7 zile
  • Temperatura apei
  • Hartă satelitară
  • Meteo pe hartă
  • Widget-uri
  • user-avatar
    Intrare

    Meteo pe oră la Mayrhofen

    Astăzi, 25 Mai, Joi

    Timp Temperatura Precipitaţii Vânt Presiune Umiditate
    00:00 +5°C° 1,4 mm 2 m/s 619 mmHg 95%
    01:00 +5°C° 0 mm 2 m/s 619 mmHg 96%
    02:00 +4°C° 0,2 mm 2 m/s 619 mmHg 96%
    03:00 +3°C° 0,2 mm 2 m/s 618 mmHg 96%
    04:00 +3°C° 0,2 mm 2 m/s 618 mmHg 97%
    05:00 +4°C° 0 mm 2 m/s 619 mmHg 94%
    06:00 +6°C° 0 mm 1 m/s 619 mmHg 91%
    07:00 +7°C° 0 mm 1 m/s 620 mmHg 90%
    08:00 +8°C° 0 mm 1 m/s 620 mmHg 83%
    09:00 +9°C° 0 mm 1 m/s 621 mmHg 75%
    10:00 +9°C° 0 mm 2 m/s 621 mmHg 68%
    11:00 +10°C° 0 mm 2 m/s 621 mmHg 65%
    12:00 +12°C° 0 mm 2 m/s 621 mmHg 61%
    13:00 +13°C° 0 mm 2 m/s 622 mmHg 58%
    14:00 +13°C° 0 mm 2 m/s 621 mmHg 60%
    15:00 +13°C° 0 mm 2 m/s 621 mmHg 62%
    16:00 +12°C° 0 mm 2 m/s 621 mmHg 65%
    17:00 +10°C° 0 mm 2 m/s 621 mmHg 73%
    18:00 +9°C° 0 mm 2 m/s 620 mmHg 81%
    19:00 +9°C° 0 mm 1 m/s 620 mmHg 88%
    20:00 +8°C° 0 mm 1 m/s 620 mmHg 91%
    21:00 +7°C° 0 mm 1 m/s 619 mmHg 94%
    22:00 +6°C° 0 mm 1 m/s 619 mmHg 96%
    23:00 +5°C° 0 mm 1 m/s 619 mmHg 96%

    Mâine, 26 Mai, Vineri

    Timp Temperatura Precipitaţii Vânt Presiune Umiditate
    00:00 +4°C° 0 mm 1 m/s 619 mmHg 96%
    01:00 +4°C° 0 mm 1 m/s 618 mmHg 96%
    02:00 +3°C° 0 mm 1 m/s 618 mmHg 96%
    03:00 +3°C° 0 mm 1 m/s 618 mmHg 96%
    04:00 +2°C° 0 mm 1 m/s 617 mmHg 95%
    05:00 +4°C° 0 mm 1 m/s 618 mmHg 88%
    06:00 +6°C° 0 mm 1 m/s 619 mmHg 81%
    07:00 +9°C° 0 mm 1 m/s 620 mmHg 73%
    08:00 +11°C° 0 mm 1 m/s 621 mmHg 65%
    09:00 +13°C° 0 mm 1 m/s 621 mmHg 57%
    10:00 +15°C° 0 mm 2 m/s 622 mmHg 50%
    11:00 +15°C° 0 mm 2 m/s 622 mmHg 48%
    12:00 +16°C° 0 mm 2 m/s 622 mmHg 47%
    13:00 +17°C° 0 mm 2 m/s 623 mmHg 46%
    14:00 +17°C° 0 mm 2 m/s 622 mmHg 48%
    15:00 +17°C° 0 mm 2 m/s 622 mmHg 50%
    16:00 +16°C° 0 mm 2 m/s 622 mmHg 52%
    17:00 +15°C° 0 mm 2 m/s 621 mmHg 63%
    18:00 +13°C° 0 mm 2 m/s 621 mmHg 73%
    19:00 +11°C° 0 mm 1 m/s 620 mmHg 83%
    20:00 +9°C° 0 mm 1 m/s 619 mmHg 88%
    21:00 +7°C° 0 mm 1 m/s 619 mmHg 92%
    22:00 +4°C° 0 mm 1 m/s 618 mmHg 97%
    23:00 +4°C° 0 mm 1 m/s 618 mmHg 96%

    Poimâine, 27 Mai, Sâmbătă

    Timp Temperatura Precipitaţii Vânt Presiune Umiditate
    00:00 +3°C° 0 mm 1 m/s 618 mmHg 94%
    01:00 +3°C° 0 mm 1 m/s 618 mmHg 93%
    02:00 +3°C° 0 mm 1 m/s 618 mmHg 91%
    03:00 +3°C° 0 mm 1 m/s 618 mmHg 89%
    04:00 +3°C° 0 mm 1 m/s 618 mmHg 88%
    05:00 +6°C° 0 mm 1 m/s 619 mmHg 80%
    06:00 +9°C° 0 mm 1 m/s 620 mmHg 72%
    07:00 +10°C° 0 mm 0 m/s 622 mmHg 64%
    08:00 +13°C° 0 mm 1 m/s 622 mmHg 56%
    09:00 +16°C° 0 mm 1 m/s 623 mmHg 47%
    10:00 +19°C° 0 mm 1 m/s 624 mmHg 39%
    11:00 +19°C° 0 mm 1 m/s 624 mmHg 39%
    12:00 +20°C° 0 mm 1 m/s 624 mmHg 39%
    13:00 +20°C° 0 mm 2 m/s 624 mmHg 38%
    14:00 +19°C° 0,1 mm 2 m/s 624 mmHg 42%
    15:00 +19°C° 0,1 mm 2 m/s 624 mmHg 46%
    16:00 +18°C° 0,1 mm 2 m/s 624 mmHg 50%
    17:00 +17°C° 0,2 mm 2 m/s 623 mmHg 62%
    18:00 +15°C° 0,2 mm 1 m/s 623 mmHg 74%
    19:00 +13°C° 0,2 mm 1 m/s 622 mmHg 85%
    20:00 +11°C° 0,1 mm 1 m/s 621 mmHg 89%
    21:00 +8°C° 0,1 mm 1 m/s 621 mmHg 93%
    22:00 +6°C° 0,1 mm 1 m/s 620 mmHg 97%
    23:00 +6°C° 0 mm 1 m/s 620 mmHg 96%

    28 Mai, Duminică

    Timp Temperatura Precipitaţii Vânt Presiune Umiditate
    00:00 +7°C° 0 mm 1 m/s 621 mmHg 96%
    01:00 +8°C° 0 mm 1 m/s 621 mmHg 96%
    02:00 +8°C° 0 mm 1 m/s 621 mmHg 96%
    03:00 +8°C° 0 mm 1 m/s 621 mmHg 96%
    04:00 +8°C° 0 mm 1 m/s 621 mmHg 96%
    05:00 +9°C° 0 mm 1 m/s 622 mmHg 91%
    06:00 +11°C° 0 mm 1 m/s 623 mmHg 87%
    07:00 +12°C° 0 mm 1 m/s 623 mmHg 82%
    08:00 +15°C° 0 mm 1 m/s 624 mmHg 70%
    09:00 +18°C° 0 mm 1 m/s 625 mmHg 57%
    10:00 +18°C° 0 mm 0 m/s 626 mmHg 45%
    11:00 +21°C° 0 mm 1 m/s 626 mmHg 43%
    12:00 +22°C° 0 mm 1 m/s 626 mmHg 40%
    13:00 +23°C° 0 mm 1 m/s 626 mmHg 38%
    14:00 +22°C° 0 mm 1 m/s 626 mmHg 41%
    15:00 +22°C° 0 mm 1 m/s 625 mmHg 44%
    16:00 +21°C° 0 mm 1 m/s 625 mmHg 47%
    17:00 +19°C° 0,1 mm 1 m/s 624 mmHg 59%
    18:00 +16°C° 0,1 mm 1 m/s 624 mmHg 71%
    19:00 +15°C° 0,1 mm 1 m/s 623 mmHg 83%
    20:00 +12°C° 0 mm 1 m/s 622 mmHg 87%
    21:00 +10°C° 0 mm 1 m/s 622 mmHg 91%
    22:00 +8°C° 0 mm 1 m/s 621 mmHg 96%
    23:00 +8°C° 0 mm 1 m/s 621 mmHg 96%

    29 Mai, Luni

    Timp Temperatura Precipitaţii Vânt Presiune Umiditate
    00:00 +9°C° 0 mm 1 m/s 621 mmHg 95%
    01:00 +9°C° 0 mm 1 m/s 621 mmHg 95%
    02:00 +9°C° 0 mm 1 m/s 621 mmHg 95%
    03:00 +8°C° 0 mm 1 m/s 620 mmHg 95%
    04:00 +8°C° 0 mm 1 m/s 620 mmHg 95%
    05:00 +10°C° 0 mm 1 m/s 621 mmHg 90%
    06:00 +12°C° 0 mm 1 m/s 622 mmHg 85%
    07:00 +14°C° 0 mm 1 m/s 622 mmHg 80%
    08:00 +15°C° 0 mm 0 m/s 623 mmHg 69%
    09:00 +17°C° 0 mm 0 m/s 624 mmHg 58%
    10:00 +20°C° 0 mm 0 m/s 625 mmHg 47%
    11:00 +22°C° 0 mm 1 m/s 624 mmHg 45%
    12:00 +23°C° 0 mm 1 m/s 624 mmHg 43%
    13:00 +24°C° 0 mm 1 m/s 624 mmHg 41%
    14:00 +23°C° 0,1 mm 1 m/s 624 mmHg 45%
    15:00 +22°C° 0,1 mm 1 m/s 623 mmHg 49%
    16:00 +21°C° 0,1 mm 1 m/s 623 mmHg 53%
    17:00 +20°C° 0,4 mm 1 m/s 622 mmHg 64%
    18:00 +18°C° 0,4 mm 1 m/s 621 mmHg 76%
    19:00 +15°C° 0,4 mm 1 m/s 621 mmHg 87%
    20:00 +13°C° 0,2 mm 1 m/s 620 mmHg 90%
    21:00 +12°C° 0,2 mm 1 m/s 619 mmHg 93%
    22:00 +10°C° 0,2 mm 1 m/s 619 mmHg 96%
    23:00 +9°C° 0,1 mm 1 m/s 619 mmHg 96%

    30 Mai, Marţi

    Timp Temperatura Precipitaţii Vânt Presiune Umiditate
    00:00 +9°C° 0,1 mm 1 m/s 618 mmHg 96%
    01:00 +9°C° 0,1 mm 1 m/s 618 mmHg 96%
    02:00 +9°C° 0,1 mm 1 m/s 618 mmHg 96%
    03:00 +9°C° 0,1 mm 1 m/s 618 mmHg 96%
    04:00 +8°C° 0,1 mm 1 m/s 618 mmHg 96%
    05:00 +10°C° 0 mm 1 m/s 618 mmHg 91%
    06:00 +12°C° 0 mm 1 m/s 619 mmHg 86%
    07:00 +13°C° 0 mm 0 m/s 620 mmHg 82%
    08:00 +15°C° 0,1 mm 0 m/s 621 mmHg 73%
    09:00 +19°C° 0,1 mm 1 m/s 622 mmHg 63%
    10:00 +22°C° 0,1 mm 1 m/s 623 mmHg 54%
    11:00 +22°C° 0,8 mm 1 m/s 622 mmHg 57%
    12:00 +21°C° 0,8 mm 1 m/s 622 mmHg 59%
    13:00 +21°C° 0,8 mm 1 m/s 622 mmHg 62%
    14:00 +21°C° 1,5 mm 1 m/s 622 mmHg 67%
    15:00 +20°C° 1,5 mm 1 m/s 622 mmHg 71%
    16:00 +19°C° 1,5 mm 1 m/s 621 mmHg 76%
    17:00 +18°C° 1,2 mm 1 m/s 621 mmHg 81%
    18:00 +16°C° 1,2 mm 1 m/s 621 mmHg 87%
    19:00 +13°C° 1,2 mm 0 m/s 620 mmHg 92%
    20:00 +12°C° 0,6 mm 0 m/s 620 mmHg 94%
    21:00 +10°C° 0,6 mm 0 m/s 620 mmHg 96%
    22:00 +9°C° 0,6 mm 0 m/s 619 mmHg 97%
    23:00 +8°C° 0,3 mm 0 m/s 619 mmHg 97%
    Arată mai mult